MDT,Max TemperatureF,Mean TemperatureF,Min TemperatureF,Max Dew PointF,MeanDew PointF,Min DewpointF,Max Humidity, Mean Humidity, Min Humidity, Max Sea Level PressureIn, Mean Sea Level PressureIn, Min Sea Level PressureIn, Max VisibilityMiles, Mean VisibilityMiles, Min VisibilityMiles, Max Wind SpeedMPH, Mean Wind SpeedMPH, Max Gust SpeedMPH,PrecipitationIn, CloudCover, Events, WindDirDegrees
2013-9-1,88,68,47,47,43,40,80,51,21,30.10,29.99,29.89,10,10,10,13,7,15,0.00,0,,99
2013-9-2,95,74,53,45,41,35,59,36,13,29.90,29.85,29.78,10,10,10,20,8,24,0.00,0,,141
2013-9-3,87,70,53,48,45,41,72,47,22,30.09,29.96,29.87,10,10,8,13,6,17,0.00,0,,215
2013-9-4,88,74,60,55,50,46,73,50,27,30.12,30.03,29.99,10,10,10,13,5,20,T,1,,125
2013-9-5,94,75,56,62,53,45,84,53,21,30.03,29.97,29.89,10,10,7,46,8,56,0.08,1,Rain,166
2013-9-6,88,72,55,61,57,52,93,61,29,30.08,29.98,29.89,10,10,6,32,8,45,0.01,1,Rain,108
2013-9-7,73,64,54,61,58,53,97,83,68,30.18,30.08,29.95,10,9,2,33,7,41,0.17,6,Rain,252
2013-9-8,75,64,52,58,54,50,100,77,54,30.07,29.97,29.82,10,8,0,36,5,43,0.05,3,Fog-Rain,122
2013-9-9,69,59,48,53,49,44,93,74,55,30.03,29.93,29.86,10,10,10,23,8,31,T,4,Rain,267
2013-9-10,79,63,46,49,46,42,93,61,28,30.09,30.05,30.02,10,10,10,14,5,30,0.00,0,,134
2013-9-11,78,62,46,52,46,42,86,59,31,30.30,30.22,30.11,10,10,10,15,7,18,0.00,0,,95
2013-9-12,81,63,45,48,44,38,83,57,30,30.28,30.17,29.98,10,10,10,23,8,28,0.00,0,,119
2013-9-13,79,65,50,55,50,46,83,60,36,29.97,29.84,29.76,10,10,10,8,3,10,0.00,0,,43
2013-9-14,70,62,53,53,50,40,86,69,51,30.14,29.95,29.78,10,10,10,18,9,23,0.00,1,,316
2013-9-15,77,61,45,53,47,38,82,61,39,30.16,30.06,29.89,10,10,10,24,11,30,0.00,0,,116
2013-9-16,87,69,51,51,47,40,89,55,21,29.88,29.79,29.70,10,10,10,43,9,55,T,0,,175
2013-9-17,71,60,48,56,49,44,100,74,47,29.91,29.74,29.60,10,9,2,21,6,28,0.53,4,Rain,166
2013-9-18,54,47,40,51,45,37,100,87,74,30.05,29.78,29.59,10,8,1,20,8,29,0.55,6,Rain,267
2013-9-19,59,49,38,39,36,32,92,64,36,30.20,30.13,30.06,10,10,10,17,7,23,0.00,4,,279
2013-9-20,74,55,36,38,33,27,92,55,17,30.10,29.91,29.74,10,10,10,22,9,26,0.00,0,,153
2013-9-21,84,63,42,43,35,29,70,43,16,29.73,29.61,29.51,10,10,10,24,8,31,T,0,Rain,171
2013-9-22,68,57,46,48,41,36,76,56,35,29.68,29.59,29.53,10,10,8,17,5,22,0.07,3,Rain,277
2013-9-23,64,52,40,46,36,28,100,63,26,29.91,29.78,29.64,10,10,10,28,12,32,0.00,1,,253
2013-9-24,61,49,36,47,40,32,93,68,42,29.94,29.81,29.68,10,10,7,20,6,26,0.15,5,Rain,304
2013-9-25,46,43,40,45,42,39,100,95,89,29.79,29.73,29.68,10,9,2,16,8,21,0.22,8,Rain,316
2013-9-26,41,39,36,39,37,33,100,93,85,30.06,29.90,29.77,10,9,5,20,9,28,0.34,8,Rain,304
2013-9-27,54,43,31,34,30,25,100,68,35,30.06,29.96,29.85,10,10,10,21,8,24,0.00,1,,213
2013-9-28,63,50,37,39,35,31,76,57,37,29.87,29.80,29.66,10,10,10,28,16,37,0.00,3,,240
2013-9-29,64,54,44,40,33,31,65,48,31,29.65,29.57,29.42,10,10,10,46,19,60,0.00,2,,240
2013-9-30,57,49,40,46,33,23,66,48,29,29.85,29.60,29.45,10,10,6,37,16,47,0.14,3,Rain,245